User: anonymous   Login
Location: Unspecified
(0.0000°N, 0.0000°E)
Time: 20:44:20
(UTC+00:00)
Language:

STARLINK-2068 - Orbit

View from above orbital plane
View from above orbital plane
View from above satellite
View from above satellite

Ground track
Ground track

The orbit is defined by the following mean orbital elements,

1 47722U          26145.43763880 +.00000000 +00000-0 -41232-4 0 00009
2 47722  53.1576 194.0526 0001119  77.8939 282.2187 15.31679819    03
Epoch (UTC): 25 May 2026 10:30:11
Eccentricity: 0.0001119
inclination: 53.1576°
perigee height: 470 km
apogee height: 472 km
right ascension of ascending node: 194.0526°
argument of perigee: 77.8939°
revolutions per day: 15.31679819
mean anomaly at epoch: 282.2187°

The dashed part of the orbit path shows where the satellite is in the earth's shadow,  

DLR